Regional Weather Roundup
Issued by NWS

Home | Current Version | Previous Version | Graphics & Text | Print | Product List | Glossary On
Versions: 1 2 3 4 5 6 7 8 9 10 11 12 13 14 15 16 17 18 19 20 21 22 23 24 25 26 27 28 29 30 31 32 33 34 35 36 37 38 39 40 41 42 43 44 45 46 47 48 49 50
000
ASUS43 KFSD 022010
RWRSD

WEATHER ROUNDUP FOR SOUTH DAKOTA
NATIONAL WEATHER SERVICE SIOUX FALLS SD
300 PM CDT THU JUL 02 2015

NOTE: "FAIR" INDICATES FEW OR NO CLOUDS BELOW 12,000 FEET WITH NO
SIGNIFICANT WEATHER AND/OR OBSTRUCTIONS TO VISIBILITY.


SDZ001>005-009-010-012>017-022100-
NORTHWEST AND NORTH CENTRAL SOUTH DAKOTA

CITY           SKY/WX    TMP DP  RH WIND       PRES   REMARKS
BUFFALO          N/A     77  57  50 N21G26    30.01S
FAITH            N/A     80  57  45 N10       30.03S
MOBRIDGE       MOSUNNY   76  65  68 N6        29.96F
$$

SDZ012>016-024>037-041>051-057-063-072>074-022100-
SOUTHWEST AND SOUTH CENTRAL SOUTH DAKOTA

CITY           SKY/WX    TMP DP  RH WIND       PRES   REMARKS
RAPID CTY ARPT MOSUNNY   78  58  49 N13G24    30.08S
PIERRE         MOSUNNY   77  64  64 N9        29.97F
CUSTER         MOSUNNY   73  47  39 W17G23    30.20S
ELLSWORTH AFB  MOSUNNY   79  58  47 N20G25    30.07F
PHILIP         PTSUNNY   78  62  57 N10       30.01F HAZE
PINE RIDGE     MOSUNNY   79  58  48 N16G23    30.08S
SPEARFISH      FAIR      75  57  53 NW14      30.15S
$$

SDZ004>011-016>023-039-040-022100-
NORTHEAST SOUTH DAKOTA

CITY           SKY/WX    TMP DP  RH WIND       PRES   REMARKS
ABERDEEN       PTSUNNY   69  62  78 SE8       29.98F
WATERTOWN      CLOUDY    71  49  45 VRB5      30.00F
BROOKINGS      CLOUDY    70  46  43 CALM      30.03R
SISSETON         N/A     75  51  43 S8        29.97F
$$

SDZ017-020-022-023-036>040-048>070-022100-
SOUTHEAST SOUTH DAKOTA

CITY           SKY/WX    TMP DP  RH WIND       PRES   REMARKS
SIOUX FALLS    CLOUDY    70  57  63 SE6       30.00R
HURON          CLOUDY    66  60  81 N3        29.99S
CHAMBERLAIN    PTSUNNY   74  63  69 N6        29.98S
MITCHELL       CLOUDY    70  62  76 E10       29.99R
YANKTON        CLOUDY    64  61  88 E7        29.98R
$$

ABBREVIATIONS USED IN REMARKS
   TC - TEMPERATURE IN CELSIUS
  WCI - WIND CHILL INDEX
   HX - HEAT INDEX
  VSB - VISIBILITY




USA.gov is the U.S. government's official web portal to all federal, state and local government web resources and services.